Probability
11 11 9 7 7 7 7 8 7 5 4 4 3 3 3 3 4 4 4 1 0 0 0 0 0 0 0 0 0 0 0 0 0 1 2 3 4 5
14 14 12 10 9 8 8 8 7 7 6 5 4 4 5 5 5 6 5 3 1 0 0 0 0 0 0 0 0 0 0 0 0 0 1 1 3 3
19 18 16 15 14 12 10 8 8 8 8 7 6 7 7 7 7 6 5 5 3 1 0 0 0 0 0 0 0 0 0 0 0 0 0 0 1 1
22 22 20 20 20 18 14 11 10 10 10 9 8 9 8 6 6 5 5 5 4 1 0 0 0 0 0 0 0 0 0 0 0 0 0 0 0 0
22 23 22 22 23 23 20 15 12 13 14 11 10 11 9 7 6 5 5 6 3 1 0 0 0 0 0 0 0 0 0 0 0 0 0 0 0 0
19 20 20 19 20 22 22 20 17 16 16 15 14 12 11 10 9 8 9 9 6 4 4 4 2 1 0 0 0 0 0 0 0 0 0 0 0 0
15 17 18 16 15 16 16 17 17 17 17 17 16 15 14 15 13 13 14 13 9 7 8 9 8 6 3 2 1 0 0 0 0 0 0 0 0 0
12 15 17 15 14 12 10 9 10 11 13 16 17 18 18 18 16 15 15 15 11 10 11 11 11 11 9 5 2 0 0 0 0 0 0 0 0 0
12 14 15 15 16 15 12 7 6 7 9 14 18 19 19 17 14 13 14 14 13 12 12 11 12 13 12 7 3 0 0 0 0 0 0 0 0 0
12 12 14 15 16 17 17 15 13 10 9 11 15 17 15 13 11 11 12 12 12 13 14 12 12 12 12 10 4 0 0 0 0 0 0 0 0 0
12 11 11 12 11 12 17 22 21 16 11 8 8 9 9 8 8 9 10 9 8 10 13 14 13 12 12 11 6 2 0 0 0 0 0 0 0 0
13 11 9 7 5 6 13 21 22 19 15 10 7 8 9 8 7 7 8 8 7 9 13 15 16 14 12 10 8 5 3 2 1 0 0 0 0 0
13 12 10 6 2 2 7 13 15 15 15 15 13 13 13 12 10 8 8 9 10 11 13 16 18 18 16 12 9 8 7 7 5 3 2 1 0 0
13 12 10 6 2 1 3 5 6 8 12 16 16 15 14 12 11 11 10 11 11 12 14 16 18 20 19 16 12 11 12 11 9 8 6 3 1 0
10 9 6 3 2 2 2 2 3 6 11 14 16 14 11 9 9 9 10 10 11 12 14 15 17 18 19 17 14 12 12 11 11 11 9 6 3 2
7 7 5 4 5 6 5 4 5 8 11 13 14 13 10 7 7 8 9 10 9 9 10 12 15 16 15 14 12 11 10 10 11 12 10 7 5 4
6 8 9 10 11 12 11 9 9 10 10 11 11 11 10 8 6 8 10 10 8 6 6 8 11 12 10 8 8 8 9 11 13 12 10 6 5 5
5 9 12 14 15 15 15 13 12 12 12 11 10 10 10 8 7 8 9 9 7 5 5 5 7 7 6 4 4 7 10 11 12 12 9 6 5 5
4 8 12 14 15 16 17 16 14 14 14 14 12 11 10 9 6 6 7 8 8 6 5 5 5 5 5 3 3 4 7 8 9 10 8 7 6 6
6 8 12 15 17 18 18 17 16 17 17 15 13 12 11 9 7 6 6 7 7 5 5 5 4 4 3 3 2 2 2 4 6 8 8 8 7 5
7 9 12 15 16 16 16 17 17 17 17 15 14 14 14 12 9 6 5 5 5 5 5 5 5 3 2 2 1 1 0 1 3 6 6 6 6 5
7 9 12 13 12 11 12 14 14 14 15 15 15 15 16 15 12 8 6 5 5 5 6 6 4 2 2 2 2 1 0 0 2 3 2 2 3 4
8 9 11 11 9 9 10 11 11 12 13 14 15 16 16 16 13 11 9 7 7 6 6 6 4 2 2 3 3 2 1 1 2 2 1 0 1 2
Wind_Speed
3 4 4 3 3 3 3 3 3 3 3 3 3 3 3 3 5 5 5 7 8 7 7 6 7 7 7 7 7 6 6 6 6 6 6 6 6 6
3 3 4 3 2 3 3 3 3 4 3 2 3 3 3 3 5 5 5 8 8 8 8 8 7 7 7 7 7 7 7 7 7 7 6 6 6 7
4 4 4 4 3 3 3 3 3 3 3 3 2 2 3 5 3 5 5 6 7 11 10 9 9 8 8 8 8 8 8 8 8 8 7 7 7 7
4 4 4 3 4 3 3 3 3 3 4 4 3 3 4 5 4 6 5 5 5 9 11 10 9 9 9 9 9 8 8 8 8 8 8 8 8 8
4 4 4 4 4 3 4 3 3 4 4 4 4 3 3 4 4 5 6 4 6 6 10 11 10 10 10 10 9 9 8 8 8 8 8 8 8 8
4 4 4 4 4 4 4 4 4 4 4 4 4 3 3 3 4 4 5 5 5 5 5 6 8 11 12 11 11 10 10 9 9 8 8 8 8 8
5 4 4 4 4 4 4 4 4 4 4 4 5 4 4 3 4 4 4 4 4 4 4 5 6 7 9 11 12 11 10 10 10 9 9 9 8 8
5 5 5 6 5 6 6 5 5 6 6 5 5 4 4 4 4 5 4 4 4 3 4 5 5 5 6 6 9 11 11 11 10 10 10 9 9 9
5 5 5 3 5 5 6 8 8 8 7 7 6 6 5 4 4 6 5 6 6 3 4 6 5 5 5 4 9 11 11 11 10 10 10 10 10 9
6 6 6 5 4 5 6 6 7 7 8 8 7 7 6 4 5 6 6 7 7 5 5 6 5 5 5 4 9 11 11 11 10 10 9 9 10 10
6 6 7 7 3 4 7 7 7 7 7 8 7 7 5 5 5 6 6 6 6 5 5 5 5 5 5 5 6 11 11 11 10 9 9 9 9 9
6 6 6 7 4 5 7 7 7 7 6 6 7 8 9 8 9 8 7 7 6 5 3 4 5 4 5 4 3 5 6 9 10 10 9 9 9 8
6 5 4 7 7 7 8 8 7 7 7 7 7 7 7 7 8 8 7 7 7 7 4 4 5 5 5 3 3 4 4 5 6 7 9 10 10 9
6 5 3 4 7 8 8 7 8 8 7 7 6 6 6 6 5 6 7 8 7 8 6 5 5 5 5 4 4 4 4 4 4 5 5 8 10 11
6 5 5 5 7 8 10 9 8 7 7 7 7 6 5 5 5 5 6 6 7 7 6 7 7 6 6 6 5 4 4 4 4 5 5 5 6 6
5 4 6 7 7 7 5 7 7 6 6 7 6 5 5 5 5 5 5 4 5 5 5 7 7 7 7 6 5 5 4 4 4 5 4 5 5 6
4 4 4 4 4 4 5 4 5 5 6 6 6 5 5 5 5 4 4 5 5 5 4 4 5 6 7 6 6 5 5 5 5 4 5 5 5 5
4 4 4 4 5 5 4 4 4 5 5 5 5 5 5 5 5 4 4 5 5 4 4 3 3 3 4 4 5 6 5 4 4 4 5 6 6 5
4 4 4 4 5 5 5 5 5 4 4 4 4 4 5 5 4 4 4 4 4 4 4 3 3 4 5 5 4 5 5 4 3 4 5 5 6 5
4 4 4 4 4 5 5 5 5 4 3 3 4 4 4 4 4 4 4 4 4 4 4 4 4 4 5 5 3 3 6 5 4 5 5 5 4 3
3 3 4 4 4 4 4 4 4 4 4 4 4 4 4 4 4 4 4 4 5 5 5 4 3 4 4 3 3 4 3 5 5 4 5 5 5 5
3 3 3 4 4 4 4 4 4 3 4 3 3 3 3 4 4 5 4 4 4 4 5 4 3 3 4 5 5 4 4 3 4 5 4 5 5 6
4 4 4 4 3 3 3 4 4 3 3 3 3 3 3 4 4 4 4 4 4 4 4 3 2 3 4 5 5 4 5 5 4 5 5 5 7 6
Wind_Direction
224 217 236 233 240 251 248 252 262 256 236 203 213 204 217 204 161 214 212 177 190 198 208 213 211 212 212 210 208 207 209 209 211 215 217 219 220 223
239 243 244 242 230 243 246 249 262 269 272 231 217 205 213 225 185 223 221 174 195 202 209 213 214 213 211 206 206 205 206 209 211 212 213 217 222 224
235 230 234 254 245 239 241 240 245 256 254 258 232 192 211 242 203 229 222 218 203 195 204 210 214 216 214 211 208 208 209 211 214 215 219 222 224 227
237 239 241 233 233 243 244 241 243 247 246 249 243 216 218 228 222 233 229 224 226 184 194 204 209 213 215 214 211 210 211 213 214 216 219 222 225 228
245 240 242 238 235 237 240 242 244 242 243 247 243 225 224 219 221 230 232 234 240 187 189 200 207 211 213 214 212 210 210 211 212 215 219 224 226 229
253 245 242 237 235 239 232 234 244 249 243 251 250 231 227 211 224 234 231 219 237 225 204 206 203 208 211 211 210 210 211 211 212 215 218 222 226 228
248 244 241 239 247 247 254 236 236 243 245 245 246 241 233 220 232 240 244 238 228 232 225 219 207 212 207 211 210 209 209 212 213 215 218 220 222 224
249 248 238 225 225 223 243 251 250 245 251 251 247 250 246 241 247 254 256 253 247 216 230 237 225 225 220 213 190 196 206 210 213 215 218 220 221 221
250 253 255 241 232 239 230 229 236 241 245 255 261 260 256 250 255 256 251 256 262 256 241 251 240 237 233 209 177 188 200 208 213 215 217 218 217 216
248 249 255 256 249 254 253 243 243 238 232 239 257 262 264 265 252 253 257 251 249 239 230 255 254 253 245 217 176 189 198 205 210 213 216 214 213 215
249 249 253 253 238 245 252 251 252 251 232 229 246 260 274 264 260 257 249 248 250 242 216 241 253 257 251 236 194 189 196 202 208 211 212 212 214 217
242 238 231 247 240 220 243 251 254 259 263 241 232 234 239 231 222 238 250 253 259 258 224 231 249 249 251 236 224 196 199 200 202 204 205 209 209 220
257 250 232 199 222 225 241 252 256 267 263 256 248 241 235 233 226 226 237 250 259 264 251 224 251 251 252 250 232 226 221 208 203 204 202 204 206 221
268 269 261 199 218 227 236 250 256 256 256 254 250 247 245 244 242 240 238 243 252 261 266 258 254 250 256 256 248 227 224 221 218 213 206 192 206 217
270 291 291 248 238 233 229 237 241 243 249 249 249 250 250 252 254 243 238 238 244 246 243 245 250 248 246 248 248 239 233 230 223 224 219 209 209 207
264 264 243 239 243 261 252 227 234 245 252 253 254 258 262 254 247 250 247 238 245 249 236 238 243 244 247 249 245 241 231 226 221 220 226 228 223 222
300 276 271 263 252 247 249 251 248 242 241 249 252 251 251 252 251 249 251 250 248 252 254 236 230 234 245 252 249 241 236 232 224 215 223 232 231 229
281 271 274 275 274 276 275 266 252 250 253 252 248 251 254 255 255 254 251 251 253 253 251 252 244 235 238 244 250 249 243 241 233 218 229 234 237 231
250 267 274 276 276 276 275 275 272 264 257 256 257 257 257 257 256 255 254 256 257 259 257 251 243 239 243 247 229 226 240 240 236 228 229 235 243 237
261 274 281 283 281 279 279 279 281 284 277 266 260 262 264 262 263 264 260 264 267 266 258 246 243 244 250 260 265 237 217 231 236 237 236 239 247 239
286 290 294 294 294 294 294 292 289 287 289 284 275 267 263 263 265 270 268 257 258 261 261 256 254 245 253 254 254 246 221 213 238 242 238 239 241 238
306 305 305 304 303 303 300 297 291 288 287 282 281 280 275 270 268 267 273 272 262 261 264 262 244 238 244 246 254 255 248 225 215 231 245 251 251 246
316 312 312 310 307 306 305 305 302 301 299 301 295 288 287 285 279 273 273 272 270 266 265 265 256 243 247 246 249 252 249 240 232 221 224 222 231 240